Trenton, NJ

4:34 PM EST on December 12, 2019 (GMT -0500)
Trenton Mercer

Weather History for KTTN - October, 2019

Change the Weather History Date:

Sunday, October 6, 2019

  Actual Average Record
Temperature  
Mean Temperature 60 °F 58 °F  
Max Temperature 70 °F 68 °F 91 °F (1941)
Min Temperature 49 °F 48 °F 34 °F (1993)
Degree Days  
Heating Degree Days 6 8  
Month to date heating degree days 32 41  
Since 1 July heating degree days 50 106  
Cooling Degree Days 0 1  
Month to date cooling degree days 22 6  
Year to date cooling degree days 1159 961  
Growing Degree Days 10 (Base 50)    
Moisture  
Dew Point 55 °F    
Average Humidity 79    
Maximum Humidity 89    
Minimum Humidity 71    
Precipitation  
Precipitation T in 0.16 in 2.05 in (1871)
Month to date precipitation 0.38 0.92  
Year to date precipitation 39.04 36.17  
Sea Level Pressure  
Sea Level Pressure 30.26 in    
Wind  
Wind Speed 5 mph ()    
Max Wind Speed 15 mph    
Max Gust Speed 21 mph    
Visibility 10.0 miles    
Events Rain    
T = Trace of Precipitation, MM = Missing Value Source: Averaged Metar Reports

Daily Weather History Graph

Daily Weather History Graph

Search for Another Location

Airport or City:

Astronomy

Oct. 06, 2019 Rise Set
Actual Time 7:00 AM EDT 6:33 PM EDT
Civil Twilight 6:33 AM EDT 7:00 PM EDT
Nautical Twilight 6:01 AM EDT 7:32 PM EDT
Astronomical Twilight 5:30 AM EDT 8:03 PM EDT
Moon 3:11 PM EDT (10/6) No Moon Set
Length of Visible Light 12h 27m
Length of Day
11h 33m
First Quarter, 59% of the Moon is Illuminated
Oct 6
First Quarter
Oct 13
Full
Oct 21
Last Quarter
Oct 27
New
Nov 4
First Quarter

Hourly Weather History & Observations

Time (EDT) Temp. Dew Point Humidity Pressure Visibility Wind Dir Wind Speed Gust Speed Precip Events Conditions
12:53 AM 51.1 °F 46.0 °F 83% 30.32 in 10.0 mi ENE 3.5 mph - N/A   Overcast
1:53 AM 50.0 °F 45.0 °F 83% 30.32 in 10.0 mi NNW 3.5 mph - N/A   Mostly Cloudy
2:53 AM 50.0 °F 46.0 °F 86% 30.32 in 10.0 mi NNE 3.5 mph - N/A   Overcast
3:53 AM 52.0 °F 48.0 °F 86% 30.30 in 10.0 mi Calm Calm - N/A   Overcast
4:53 AM 53.1 °F 48.0 °F 83% 30.30 in 10.0 mi Calm Calm - N/A   Overcast
5:53 AM 54.0 °F 48.9 °F 83% 30.29 in 10.0 mi Calm Calm - N/A   Overcast
6:53 AM 55.0 °F 50.0 °F 83% 30.29 in 10.0 mi Calm Calm - N/A   Overcast
7:53 AM 55.9 °F 51.1 °F 84% 30.29 in 10.0 mi ENE 3.5 mph - N/A   Overcast
8:53 AM 57.9 °F 52.0 °F 81% 30.30 in 10.0 mi SE 4.6 mph - N/A   Overcast
9:53 AM 62.1 °F 55.0 °F 78% 30.29 in 10.0 mi South 5.8 mph - N/A   Overcast
10:53 AM 64.9 °F 57.9 °F 78% 30.29 in 10.0 mi South 11.5 mph - N/A   Overcast
11:53 AM 66.9 °F 59.0 °F 76% 30.28 in 10.0 mi South 10.4 mph - N/A   Overcast
12:53 PM 68.0 °F 60.1 °F 76% 30.27 in 10.0 mi South 10.4 mph - N/A   Overcast
1:53 PM 68.0 °F 59.0 °F 73% 30.25 in 10.0 mi South 10.4 mph - N/A   Overcast
2:53 PM 70.0 °F 60.1 °F 71% 30.23 in 10.0 mi South 10.4 mph - N/A   Overcast
3:53 PM 69.1 °F 60.1 °F 73% 30.23 in 10.0 mi South 11.5 mph - 0.00 in   Overcast
4:53 PM 69.1 °F 60.1 °F 73% 30.23 in 10.0 mi South 9.2 mph - 0.00 in Rain Light Rain
5:53 PM 66.9 °F 61.0 °F 81% 30.22 in 10.0 mi South 8.1 mph - 0.00 in   Overcast
6:53 PM 68.0 °F 61.0 °F 78% 30.21 in 10.0 mi South 8.1 mph - 0.00 in Rain Light Rain
7:53 PM 68.0 °F 60.1 °F 76% 30.20 in 10.0 mi South 8.1 mph - 0.00 in   Scattered Clouds
8:53 PM 68.0 °F 60.1 °F 76% 30.21 in 10.0 mi South 8.1 mph - N/A   Mostly Cloudy
9:53 PM 68.0 °F 60.1 °F 76% 30.21 in 10.0 mi South 8.1 mph - 0.00 in   Overcast
10:53 PM 68.0 °F 61.0 °F 78% 30.22 in 10.0 mi South 6.9 mph - N/A   Overcast
11:53 PM 68.0 °F 61.0 °F 78% 30.20 in 10.0 mi South 8.1 mph - N/A   Overcast